[[{"header":{"parameterUnit":"m.s-1","parameterCategory":1,"la1":30.2991,"la2":30.254,"lo1":-89.0895,"lo2":-89.0444,"dy":0.0017,"dx":0.0017,"nx":28,"ny":28,"refTime":"2023-08-17T03:00:00:Z","depth":0,"parameterNumber":2,"parameterNumberName":"U-component_of_WINDS"},"data":[0,0,0,0,0,0,0,0,0,0,0,0,0,0,0,0,0,0,0,0,0,0,0,0,0,0,0,0,0,0,0,0,0,0,0,0,0,0,0,0,0,0,0,0,0,0,0,0,0,0,0,0,0,0,0,0,0,0,2.0126,2.0126,0,2.0178,2.0179,2.0179,2.0159,2.0158,2.0157,2.0156,2.0208,2.021,2.0213,0,0,0,0,0,0,0,0,0,0,0,0,0,2.0005,2.0008,2.0126,2.0126,2.0127,2.0178,2.0179,2.0179,2.0159,2.0158,2.0156,2.0155,2.0207,2.021,2.0213,0,0,0,0,0,0,0,0,0,0,0,0,0,2.0058,2.0009,2.0125,2.0123,2.0123,2.0178,2.0179,2.018,2.016,2.0158,2.0156,2.0154,2.0206,2.021,2.0214,2.0273,0,0,2.0225,2.0227,0,0,0,0,0,0,0,0,2.0055,2.0062,2.0123,2.0123,2.0124,2.016,2.0156,2.0211,2.016,2.0146,2.0156,2.0153,2.0193,2.0198,2.0212,2.0276,2.0278,2.0225,2.0228,2.0229,2.023,0,0,0,0,0,0,0,2.0051,2.006,2.0146,2.0124,2.0124,2.0119,2.0124,2.0166,2.0179,2.0147,2.0146,2.0152,2.0193,2.0208,2.0213,2.0279,2.0225,2.0229,2.0231,2.0232,2.0391,2.0393,0,0,0,0,0,0,2.0048,2.0057,2.0145,2.0148,2.0084,2.0122,2.0128,2.015,2.0179,2.0181,2.0154,2.0151,2.0203,2.0209,2.0215,2.0284,2.0229,2.0233,2.0235,2.0389,2.0391,2.0393,0,0,0,0,0,0,2.0045,2.0056,2.0143,2.0102,2.0113,2.0126,2.0151,2.0152,2.0167,2.0184,2.0186,2.0167,2.0202,2.0209,2.0258,2.0285,2.0235,2.0238,2.0386,2.0389,2.0392,2.0424,0,0,0,0,0,0,2.0042,2.0055,2.0078,2.0103,2.0115,2.0186,2.0153,2.0155,2.0174,2.0171,2.0196,2.0199,2.0201,2.0253,2.0262,2.029,2.0241,2.0384,2.0388,2.0391,2.042,2.0428,2.0434,0,0,0,0,0,2.0038,2.0085,2.008,2.009,2.0145,2.0187,2.0194,2.0196,2.0176,2.0199,2.021,2.0198,2.0282,2.0258,2.0268,2.0297,2.0382,2.0387,2.0391,2.0418,2.0426,2.0434,0,0,0,0,0,0,2.0064,2.0089,2.0082,2.014,2.0162,2.0184,2.0213,2.0205,2.0233,2.0229,2.023,2.0235,2.0285,2.0297,2.027,2.0355,2.0329,2.0335,2.0345,2.0354,2.036,2.0355,2.0244,0,0,0,0,0,2.0076,2.011,2.013,2.0178,2.0189,2.0199,2.0218,2.0218,2.024,2.0249,2.0263,2.0285,2.0315,2.0336,2.0365,2.0423,2.0427,2.0448,2.0455,2.046,2.0465,2.0494,2.0502,2.0408,2.0407,2.0407,0,0,2.0102,2.012,2.0141,2.0184,2.02,2.0234,2.0207,2.0244,2.0268,2.0255,2.03,2.0312,2.0336,2.0389,2.0412,2.04,2.0492,2.0466,2.047,2.0472,2.0499,2.0508,2.0516,2.041,2.041,2.0409,0,0,2.0165,2.0184,2.0225,2.0242,2.0268,2.0274,2.0284,2.0308,2.0314,2.0361,2.035,2.0379,2.0433,2.045,2.0465,2.0535,2.0524,2.0544,2.0578,2.0606,2.0613,2.062,2.0642,2.065,2.055,2.055,2.055,0,2.0194,2.0244,2.0247,2.0284,2.0302,2.0291,2.0332,2.0349,2.0383,2.0395,2.0381,2.0447,2.0462,2.0517,2.0534,2.0548,2.0558,2.054,2.0612,2.0619,2.0625,2.0646,2.0654,2.0552,2.0552,2.0551,2.0551,0,2.0277,2.0312,2.0342,2.0375,2.0397,2.0436,2.0442,2.0464,2.0462,2.0469,2.0516,2.0534,2.0566,2.058,2.0578,2.0634,2.0625,2.0612,2.0585,2.0636,2.0655,2.0664,2.0555,2.0554,2.0553,2.0553,0,0,2.0357,2.039,2.0401,2.0414,2.0442,2.0469,2.0507,2.0538,2.0555,2.058,2.061,2.0655,2.0642,2.066,2.066,2.0685,2.0735,2.0668,2.0669,2.0678,2.0795,2.0803,2.0813,2.073,2.0731,2.0733,2.0792,0,2.042,2.0486,2.0489,2.0549,2.058,2.0571,2.0603,2.0623,2.0631,2.0658,2.0667,2.0698,2.068,2.069,2.0715,2.0724,2.0758,2.072,2.0756,2.0757,2.0747,2.0823,2.0832,2.0888,2.08,2.0802,2.0803,0,2.0502,2.0528,2.0591,2.0613,2.0626,2.0655,2.0683,2.071,2.0732,2.0736,2.0755,2.0751,2.0788,2.0762,2.0812,2.0786,2.0801,2.0808,2.081,2.0811,2.0781,2.0824,2.0906,2.0913,2.0815,2.0814,2.0813,0,2.0551,2.0602,2.0645,2.0658,2.0685,2.0705,2.0717,2.0737,2.0756,2.078,2.0792,2.0821,2.0836,2.0857,2.0861,2.0842,2.091,2.0885,2.0913,2.0912,2.0925,2.0924,2.1008,2.094,2.094,2.094,2.0939,0,2.0619,2.0658,2.0667,2.0694,2.0736,2.0739,2.078,2.079,2.0808,2.0835,2.083,2.0855,2.086,2.0886,2.089,2.0929,2.0937,2.0939,2.0939,2.0938,2.0938,2.0946,2.0941,2.0942,2.0941,2.0941,2.094,0,2.0679,2.0688,2.0734,2.0756,2.0762,2.0792,2.081,2.0834,2.0842,2.0877,2.0885,2.0896,2.0927,2.0933,2.097,2.0972,2.1018,2.1016,2.101,2.1009,2.1036,2.1032,2.1126,2.1137,2.1064,2.1065,2.1065,0,2.0721,2.075,2.0775,2.0793,2.0806,2.0835,2.0853,2.0857,2.0877,2.0903,2.0924,2.0954,2.0978,2.1027,2.1038,2.1066,2.1062,2.1093,2.1066,2.1064,2.1059,2.1056,2.1058,2.1097,2.1098,2.1099,2.11,0,2.0794,2.0796,2.0823,2.0851,2.0873,2.0895,2.0916,2.0931,2.0938,2.096,2.0991,2.101,2.1046,2.1076,2.1103,2.1114,2.1107,2.1108,2.1116,2.1114,2.1108,2.1109,2.1021,2.1105,2.1105,2.1104,2.1104,2.1104,2.0844,2.0868,2.0889,2.0918,2.0935,2.0954,2.0978,2.0989,2.1015,2.1045,2.1046,2.1079,2.1099,2.1135,2.1148,2.1174,2.1164,2.1175,2.1178,2.118,2.1181,2.1107,2.1179,2.1179,2.1179,2.1179,2.1179,0,2.0913,2.0926,2.0954,2.0983,2.1006,2.0999,2.1021,2.1041,2.107,2.109,2.1113,2.1148,2.1176,2.119,2.1217,2.1235,2.1232,2.1242,2.1239,2.1241,2.1189,2.1179,2.1243,2.1243,2.1243,2.1243,2.1243,2.1243,2.0952,2.0992,2.0997,2.1045,2.1057,2.109,2.1103,2.1121,2.1136,2.1175,2.1198,2.1207,2.1224,2.1252,2.1277,2.128,2.1289,2.13,2.1301,2.1252,2.1245,2.1239,2.1229,2.1302,2.1302,2.135,2.1351,2.1351]},{"header":{"parameterUnit":"m.s-1","parameterCategory":1,"la1":30.2991,"la2":30.254,"lo1":-89.0895,"lo2":-89.0444,"dy":0.0017,"dx":0.0017,"nx":28,"ny":28,"refTime":"2023-08-17T03:00:00:Z","depth":0,"parameterNumber":3,"parameterNumberName":"V-component_of_WINDS"},"data":[0,0,0,0,0,0,0,0,0,0,0,0,0,0,0,0,0,0,0,0,0,0,0,0,0,0,0,0,0,0,0,0,0,0,0,0,0,0,0,0,0,0,0,0,0,0,0,0,0,0,0,0,0,0,0,0,0,0,2.1351,2.135,0,2.1324,2.1323,2.1323,2.1282,2.1281,2.128,2.128,2.1252,2.1252,2.1252,0,0,0,0,0,0,0,0,0,0,0,0,0,2.1367,2.1367,2.1351,2.135,2.135,2.1324,2.1323,2.1323,2.1282,2.1281,2.128,2.1279,2.1252,2.1252,2.1252,0,0,0,0,0,0,0,0,0,0,0,0,0,2.1352,2.1367,2.1351,2.1326,2.1324,2.1324,2.1323,2.1323,2.1282,2.1281,2.128,2.1279,2.1252,2.1252,2.1252,2.1274,0,0,2.1252,2.1252,0,0,0,0,0,0,0,0,2.1353,2.1351,2.133,2.1328,2.1325,2.1305,2.1319,2.1306,2.1282,2.1298,2.128,2.1278,2.1271,2.1269,2.1266,2.1272,2.1271,2.1252,2.1252,2.1252,2.1252,0,0,0,0,0,0,0,2.1354,2.1352,2.134,2.133,2.1327,2.1317,2.1313,2.1316,2.1291,2.1297,2.1294,2.1291,2.1269,2.1266,2.1265,2.1271,2.1252,2.1252,2.1252,2.1252,2.1292,2.1293,0,0,0,0,0,0,2.1359,2.1353,2.1341,2.1339,2.1337,2.1317,2.1314,2.1313,2.1291,2.1286,2.1292,2.1289,2.1267,2.1265,2.1264,2.1287,2.1252,2.1252,2.1252,2.1291,2.1292,2.1293,0,0,0,0,0,0,2.1359,2.1358,2.1342,2.1345,2.1343,2.1318,2.1317,2.1313,2.131,2.1287,2.1282,2.1294,2.1266,2.1264,2.1271,2.1286,2.1252,2.1252,2.1289,2.1291,2.1293,2.1334,0,0,0,0,0,0,2.136,2.1358,2.1366,2.1346,2.1343,2.135,2.1318,2.1313,2.131,2.1306,2.1288,2.1284,2.1265,2.1272,2.1271,2.1285,2.1251,2.1288,2.129,2.1292,2.1331,2.1336,2.1341,0,0,0,0,0,2.136,2.1379,2.1367,2.1365,2.1352,2.1351,2.1349,2.1327,2.1311,2.1319,2.1304,2.1284,2.1284,2.1273,2.1272,2.1286,2.1287,2.129,2.1292,2.1328,2.1335,2.1341,0,0,0,0,0,0,2.1402,2.1376,2.1362,2.1375,2.1365,2.1344,2.1353,2.1335,2.133,2.1326,2.13,2.1296,2.1306,2.1297,2.1284,2.1305,2.1283,2.1285,2.1311,2.1317,2.1322,2.1324,2.1251,0,0,0,0,0,2.1412,2.1413,2.1391,2.1404,2.14,2.1377,2.1376,2.136,2.1349,2.1345,2.133,2.132,2.1318,2.1317,2.1314,2.133,2.1324,2.1339,2.1344,2.1348,2.135,2.1357,2.1363,2.1301,2.1301,2.1301,0,0,2.1434,2.142,2.1422,2.1412,2.1402,2.1404,2.1374,2.1377,2.1378,2.1345,2.135,2.134,2.1327,2.1338,2.1342,2.1331,2.1366,2.1351,2.1355,2.1355,2.136,2.1366,2.1371,2.1303,2.1303,2.1303,0,0,2.1474,2.1464,2.1474,2.1465,2.1451,2.1436,2.1438,2.1419,2.1411,2.1416,2.1391,2.1392,2.1389,2.138,2.1376,2.1413,2.1394,2.1412,2.1439,2.1446,2.1451,2.1455,2.1467,2.1472,2.1415,2.1415,2.1415,0,2.1503,2.1504,2.1481,2.1485,2.1481,2.1452,2.1461,2.1454,2.144,2.1437,2.1424,2.1419,2.1409,2.1417,2.1426,2.1423,2.1425,2.1414,2.1452,2.1456,2.1459,2.1471,2.1476,2.1417,2.1417,2.1417,2.1416,0,2.1539,2.1541,2.155,2.1537,2.1534,2.1541,2.1519,2.1518,2.1503,2.1489,2.1494,2.1481,2.1474,2.1475,2.146,2.1481,2.1474,2.1457,2.1434,2.1468,2.1478,2.1482,2.142,2.1419,2.1419,2.1418,0,0,2.1604,2.1578,2.1582,2.1575,2.1558,2.1559,2.1564,2.1557,2.1557,2.1549,2.1552,2.155,2.1534,2.1529,2.1513,2.1519,2.1548,2.1501,2.15,2.1509,2.1569,2.1581,2.1587,2.1536,2.1536,2.1537,2.157,0,2.164,2.1648,2.1627,2.164,2.164,2.1612,2.1617,2.1607,2.1594,2.1593,2.1578,2.1577,2.1557,2.1553,2.1558,2.1543,2.1559,2.1541,2.1538,2.1538,2.1541,2.1592,2.1605,2.1637,2.1574,2.1575,2.1575,0,2.1683,2.1676,2.1689,2.1671,2.167,2.1675,2.1666,2.1665,2.1653,2.1643,2.1638,2.1619,2.1622,2.1601,2.1605,2.1593,2.159,2.1583,2.1584,2.1582,2.1558,2.1591,2.1647,2.1651,2.1581,2.1581,2.158,0,2.1728,2.1722,2.1729,2.1724,2.1703,2.1707,2.1698,2.1685,2.1682,2.1675,2.1673,2.1666,2.1662,2.1658,2.1637,2.1624,2.1644,2.1621,2.1635,2.1636,2.164,2.164,2.1695,2.164,2.164,2.164,2.164,0,2.177,2.1778,2.1749,2.1753,2.1761,2.1738,2.1747,2.1736,2.1724,2.1725,2.1701,2.1703,2.1676,2.1675,2.1659,2.1664,2.1663,2.1655,2.165,2.1656,2.1657,2.1654,2.1651,2.1641,2.1641,2.1641,2.164,0,2.1821,2.1801,2.1807,2.1786,2.1781,2.1789,2.1771,2.1774,2.176,2.1761,2.176,2.1738,2.1735,2.1715,2.1707,2.1696,2.1707,2.1699,2.1711,2.1708,2.1723,2.1722,2.1778,2.1784,2.1726,2.1726,2.1727,0,2.1848,2.1854,2.1834,2.1833,2.1826,2.1825,2.1822,2.1799,2.1796,2.1782,2.1787,2.1782,2.1776,2.1773,2.1756,2.1749,2.174,2.176,2.1739,2.1745,2.1739,2.1739,2.1739,2.1764,2.1765,2.1766,2.1766,0,2.1899,2.1889,2.1885,2.1878,2.1875,2.1868,2.186,2.1861,2.1835,2.1834,2.183,2.1826,2.1818,2.1813,2.1804,2.1795,2.1776,2.1773,2.1776,2.1782,2.1788,2.1784,2.1722,2.1772,2.1771,2.1771,2.1771,2.177,2.1938,2.1942,2.1928,2.1925,2.1917,2.1909,2.1911,2.1897,2.1894,2.1885,2.1872,2.187,2.1857,2.1843,2.1835,2.1833,2.1823,2.1827,2.1828,2.1829,2.1832,2.179,2.1832,2.1832,2.1831,2.1831,2.1831,0,2.1986,2.1977,2.1974,2.1963,2.196,2.1944,2.1934,2.1932,2.1931,2.1921,2.1916,2.1912,2.1907,2.1889,2.1882,2.1884,2.1875,2.1883,2.1882,2.188,2.1843,2.184,2.189,2.189,2.189,2.189,2.189,2.189,2.2011,2.2016,2.2005,2.2006,2.1996,2.1994,2.199,2.1983,2.1974,2.1971,2.1966,2.1955,2.1942,2.1934,2.1928,2.1923,2.1921,2.1932,2.1924,2.1889,2.1883,2.1878,2.1875,2.1932,2.1932,2.1961,2.1962,2.1962]}]]